Simultaneous Nadir Overpasses (SNOs) Predictions

Prediction of SNOs between AQUA and METOP-B Satellite Orbit:

Table of predicted SNOs for the next 14.0 days since TLE Epoch: 1/18/2025
Index Date (AQUA) Time (AQUA) Lat,Lon (AQUA) SZA (AQUA ) Date (METOP-B) Time (METOP-B) Lat,Lon (METOP-B) SZA (METOP-B ) Distance(km) Time Diff (sec)
1 01/18/2025 04:40:32 -76.70, -71.28 82.86 01/18/2025 04:39:20 -76.61, -72.23 82.93 26.32 72
2 01/18/2025 05:29:55 76.83, 95.92 97.27 01/18/2025 05:29:55 76.83, 95.96 97.28 1.13 0
3 01/18/2025 06:19:21 -77.18, -97.78 82.36 01/18/2025 06:20:28 -77.22, -95.13 82.36 65.30 67
4 01/20/2025 18:19:37 76.82, -96.44 96.73 01/20/2025 18:19:03 76.81, -96.43 96.72 1.36 34
5 01/20/2025 19:08:56 -76.86, 71.11 83.25 01/20/2025 19:09:44 -76.86, 71.07 83.25 1.12 48
6 01/23/2025 07:09:18 76.81, 71.24 96.14 01/23/2025 07:08:11 76.83, 71.31 96.16 2.45 67
7 01/23/2025 07:58:37 -76.84,-121.20 83.84 01/23/2025 07:58:52 -76.87,-121.18 83.81 3.38 15
8 01/25/2025 20:48:17 -76.87, 46.36 84.43 01/25/2025 20:48:01 -76.84, 46.36 84.46 3.48 16
9 01/25/2025 21:37:38 76.92,-146.16 95.62 01/25/2025 21:38:39 76.92,-145.99 95.61 4.25 61
10 01/28/2025 09:37:54 -76.83,-145.87 85.12 01/28/2025 09:37:09 -76.83,-145.97 85.12 2.50 45
11 01/28/2025 10:27:15 76.89, 21.60 94.93 01/28/2025 10:27:47 76.91, 21.67 94.95 2.86 32
12 01/30/2025 22:27:30 -76.84, 21.77 85.81 01/30/2025 22:26:17 -76.82, 21.66 85.82 3.83 73
13 01/30/2025 23:16:51 76.90,-170.78 94.25 01/30/2025 23:16:55 76.89,-170.71 94.24 2.13 4



Historial Predications of SNOs between AQUA and METOP-B
